Temp
74 74 73 73 73 72 72 73 74 73 73 72 71 72 71 70 69 69 68 67 66 66
75 74 73 73 73 73 73 74 74 74 73 72 72 72 71 68 66 65 64 63 62 62
74 74 73 73 72 75 75 74 73 73 73 72 70 68 66 63 63 62 61 62 60 59
74 74 74 73 73 74 73 73 73 72 70 67 65 64 62 62 61 60 59 59 59 59
75 74 74 73 75 74 73 73 71 68 65 63 62 60 59 59 59 58 57 58 58 58
74 74 73 74 74 73 74 73 68 64 61 60 58 58 58 57 56 56 57 58 57 56
75 74 74 76 75 73 73 68 63 61 59 57 57 57 56 55 54 55 57 58 58 56
73 73 73 71 72 71 69 65 62 59 57 57 58 59 54 53 53 54 56 57 58 57
72 72 70 69 69 70 65 63 60 57 56 55 59 59 61 57 53 55 55 54 54 54
71 70 69 69 68 65 63 62 57 56 54 52 52 58 58 61 53 53 53 52 50 54
70 69 68 67 65 62 61 61 57 54 52 52 53 57 56 58 52 51 52 50 49 48
70 68 67 65 62 61 60 58 57 55 52 51 50 55 55 52 49 50 50 51 50 50
69 67 65 63 61 60 60 59 59 55 52 54 50 53 53 51 48 47 48 49 50 55
67 65 63 61 61 59 58 58 57 54 51 50 50 50 52 53 49 47 47 48 49 50
MSLP
1016.18 1016.57 1016.76 1016.96 1016.96 1016.85 1016.79 1016.59 1016.39 1016.28 1016.12 1016.26 1016.50 1016.57 1016.61 1016.98 1017.27 1017.31 1017.44 1017.51 1017.41 1017.39
1015.50 1015.84 1016.22 1016.48 1016.55 1016.59 1016.41 1016.23 1016.18 1016.06 1016.33 1016.33 1016.49 1016.80 1017.37 1017.58 1017.73 1017.77 1017.86 1017.97 1017.97 1017.83
1014.69 1015.16 1015.59 1015.90 1016.14 1016.13 1015.99 1016.20 1016.37 1016.53 1016.72 1016.98 1017.25 1017.38 1017.64 1018.02 1018.22 1018.15 1018.29 1018.16 1018.02 1017.93
1014.14 1014.67 1015.08 1015.44 1015.65 1015.95 1016.22 1016.49 1016.73 1017.03 1017.44 1017.81 1018.07 1018.27 1018.20 1018.36 1018.42 1018.46 1018.43 1018.22 1018.17 1018.15
1013.61 1014.25 1014.80 1015.12 1015.49 1015.78 1016.28 1016.66 1017.14 1017.73 1018.24 1018.65 1018.76 1018.70 1018.76 1018.90 1018.81 1018.67 1018.57 1018.50 1018.44 1018.47
1013.32 1014.04 1014.50 1014.90 1015.34 1015.92 1016.36 1017.04 1017.74 1018.36 1018.77 1019.26 1019.46 1019.31 1019.17 1019.13 1019.12 1018.93 1018.82 1018.73 1018.74 1018.83
1013.07 1013.57 1014.11 1014.59 1015.31 1016.02 1016.65 1017.46 1018.11 1018.58 1019.07 1019.45 1019.65 1019.45 1019.44 1019.34 1019.34 1019.22 1018.98 1018.76 1018.81 1018.86
1012.66 1013.33 1014.04 1014.90 1015.60 1016.27 1017.04 1017.74 1018.33 1018.87 1019.32 1019.59 1019.73 1019.78 1019.59 1019.44 1019.34 1019.27 1019.23 1019.15 1018.99 1019.01
1012.60 1013.41 1014.29 1015.13 1015.82 1016.34 1017.31 1017.98 1018.48 1019.05 1019.58 1019.93 1020.10 1019.99 1019.78 1019.66 1019.64 1019.39 1019.48 1019.53 1019.44 1019.16
1012.66 1013.53 1014.38 1015.08 1015.86 1016.59 1017.42 1018.10 1018.84 1019.39 1019.94 1020.25 1020.37 1020.22 1020.14 1019.92 1019.77 1019.86 1019.89 1019.79 1019.53 1019.22
1012.66 1013.62 1014.55 1015.22 1015.92 1016.68 1017.39 1018.10 1019.01 1019.68 1020.15 1020.24 1020.41 1020.28 1020.07 1020.14 1020.17 1020.11 1019.95 1019.92 1019.63 1019.36
1012.62 1013.66 1014.53 1015.17 1015.91 1016.69 1017.46 1018.24 1018.88 1019.46 1019.96 1020.14 1020.38 1020.47 1020.30 1020.10 1020.15 1020.28 1020.23 1019.91 1019.73 1019.51
1012.65 1013.59 1014.43 1015.06 1015.94 1016.63 1017.15 1017.87 1018.75 1019.67 1020.03 1020.26 1020.46 1020.57 1020.55 1020.55 1020.38 1020.53 1020.43 1019.93 1019.65 1019.49
1012.95 1013.68 1014.34 1015.12 1015.86 1016.62 1017.24 1018.08 1018.95 1019.68 1020.11 1020.43 1020.65 1020.80 1020.88 1020.75 1021.01 1020.87 1020.53 1020.30 1019.98 1019.47
Wind_Speed
9 7 6 6 4 4 3 3 4 5 3 3 4 1 3 3 4 5 5 7 5 3
10 9 8 7 6 4 5 4 3 3 3 1 2 2 4 5 6 6 5 6 5 2
11 9 7 6 7 6 4 4 5 5 3 5 7 7 7 5 5 6 4 3 5 5
9 8 7 7 6 5 5 5 5 5 7 8 7 6 6 5 5 6 5 5 5 5
9 8 7 6 5 6 6 6 7 8 9 7 7 6 6 6 5 6 6 5 5 5
8 7 6 6 6 6 7 9 9 9 8 7 6 6 5 5 5 5 5 4 5 5
9 8 7 8 7 8 10 11 9 8 8 7 5 5 5 5 6 5 4 5 5 4
8 8 8 8 11 10 10 9 10 9 7 6 5 4 5 5 4 5 6 5 5 5
11 11 11 11 9 11 11 10 9 8 7 6 4 8 9 5 5 6 5 5 5 4
12 13 13 11 10 9 10 9 8 7 6 6 5 9 9 9 5 5 5 3 3 4
13 13 11 10 9 8 8 10 8 7 6 6 4 8 9 9 5 4 3 1 2 4
14 13 11 10 9 7 8 6 5 5 7 6 4 6 8 6 4 4 3 0 1 3
13 12 11 10 8 5 5 6 6 6 5 7 4 5 6 4 3 3 4 5 3 8
11 11 10 8 5 6 6 6 6 6 5 5 3 3 6 7 3 2 3 3 5 5
Wind_Direction
203 206 207 205 217 238 243 238 218 232 227 304 321 301 24 30 14 18 26 27 18 349
202 204 204 203 219 228 252 242 212 122 99 163 123 44 43 45 46 47 39 37 19 349
202 197 197 196 216 214 207 147 138 137 123 64 54 59 73 51 33 51 24 12 16 24
196 188 193 201 212 209 163 157 131 108 80 77 68 54 62 62 40 42 23 12 42 33
186 184 193 201 189 168 154 123 97 93 84 77 69 58 56 47 22 37 26 6 38 32
178 176 182 178 164 142 117 98 88 90 92 79 63 57 44 43 28 27 16 12 49 60
172 173 166 161 119 109 104 107 110 102 98 93 82 64 39 30 29 5 17 27 80 69
147 138 121 99 114 114 110 117 115 110 93 91 65 37 19 29 31 32 41 39 59 46
135 128 116 120 127 119 115 116 114 102 99 80 57 20 24 65 46 54 69 48 33 19
133 128 132 134 129 119 124 123 109 109 108 89 51 20 16 45 63 83 73 71 48 22
133 132 134 132 126 120 126 130 131 125 124 110 62 22 37 51 54 75 77 92 102 47
137 136 140 136 131 130 125 125 138 143 135 113 70 25 45 73 51 41 24 32 80 29
136 139 140 135 132 127 141 140 137 127 129 137 120 43 41 66 57 40 0 12 355 309
137 137 132 122 125 134 126 119 130 129 142 134 121 50 27 45 18 344 8 7 341 328